FW2916 Weather Reports


time (UTC)temp
C
wind
direction
speed
KPH
gust
KPH
rain 1hr
cm
rain 24hr
cm
rain mn
cm
humidity
%
barometer
mb
20260507171540 17 122 4.8 16.1 0.00 0.00 0.00 58 1015.3
20260507170041 17 265 4.8 14.5 0.00 0.00 0.00 60 1015.7
20260507164542 16 58 1.6 11.3 0.00 0.00 0.00 62 1015.9
20260507163040 16 292 1.6 11.3 0.00 0.00 0.00 61 1016.0
20260507161539 17 169 1.6 12.9 0.00 0.00 0.00 62 1016.0
20260507160036 17 131 1.6 14.5 0.00 0.00 0.00 60 1016.0
20260507154541 17 243 3.2 12.9 0.00 0.00 0.00 58 1016.2
20260507153044 17 241 3.2 12.9 0.00 0.00 0.00 60 1016.3
20260507151540 16 304 1.6 12.9 0.00 0.00 0.00 62 1016.5
20260507150040 16 295 3.2 11.3 0.00 0.00 0.00 63 1016.6
20260507144540 16 238 3.2 12.9 0.00 0.00 0.00 63 1016.6
20260507143040 15 266 1.6 12.9 0.00 0.00 0.00 65 1016.6
20260507141543 14 29 3.2 9.7 0.00 0.00 0.00 68 1016.6
20260507140040 13 227 1.6 9.7 0.00 0.00 0.00 69 1016.8
20260507134538 13 208 1.6 9.7 0.00 0.00 0.00 72 1016.7
20260507133035 12 177 0.0 3.2 0.00 0.00 0.00 77 1016.8
20260507131601 10 146 0.0 3.2 0.00 0.00 0.00 80 1016.9
20260507130042 8 172 0.0 3.2 0.00 0.00 0.00 84 1017.2
20260507124543 7 0 0.0 3.2 0.00 0.00 0.00 89 1017.2
20260507123043 5 0 0.0 1.6 0.00 0.00 0.00 96 1017.2
20260507121535 3 0 0.0 0.0 0.00 0.00 0.00 96 1017.1
20260507120043 3 0 0.0 0.0 0.00 0.00 0.00 95 1017.2
20260507114545 2 0 0.0 0.0 0.00 0.00 0.00 95 1017.1
20260507113040 2 0 0.0 0.0 0.00 0.00 0.00 95 1016.9
20260507111536 2 0 0.0 0.0 0.00 0.00 0.00 95 1016.9
20260507110037 2 0 0.0 0.0 0.00 0.00 0.00 95 1016.8
20260507104540 2 0 0.0 0.0 0.00 0.00 0.00 95 1016.8
20260507103042 2 0 0.0 0.0 0.00 0.00 0.00 95 1016.7
20260507101540 2 0 0.0 0.0 0.00 0.00 0.00 94 1016.8
20260507100036 3 0 0.0 0.0 0.00 0.00 0.00 94 1016.8
20260507094535 3 0 0.0 0.0 0.00 0.00 0.00 94 1017.1
20260507093038 3 0 0.0 0.0 0.00 0.00 0.00 94 1017.1
20260507091541 2 0 0.0 0.0 0.00 0.00 0.00 94 1017.1
20260507090040 3 0 0.0 0.0 0.00 0.00 0.00 93 1017.1
20260507084536 2 0 0.0 0.0 0.00 0.00 0.00 92 1017.1
20260507083036 3 0 0.0 0.0 0.00 0.00 0.00 92 1017.2
20260507081535 3 0 0.0 0.0 0.00 0.00 0.00 91 1017.3
20260507080042 3 0 0.0 0.0 0.00 0.00 0.00 91 1017.1
20260507074541 3 0 0.0 0.0 0.00 0.00 0.00 89 1017.2
20260507073037 4 0 0.0 0.0 0.00 0.00 0.00 89 1017.3
20260507071559 5 0 0.0 0.0 0.00 0.00 0.00 87 1017.4
20260507070045 5 0 0.0 0.0 0.00 0.00 0.00 87 1017.7
20260507064540 5 0 0.0 0.0 0.00 0.05 0.00 88 1017.8
20260507063045 5 0 0.0 0.0 0.00 0.05 0.00 87 1017.9
20260507061535 5 0 0.0 0.0 0.00 0.05 0.00 86 1018.0
20260507060038 5 0 0.0 0.0 0.00 0.05 0.00 86 1018.0
20260507054535 5 0 0.0 0.0 0.00 0.05 0.00 85 1018.1
20260507053109 5 0 0.0 0.0 0.00 0.05 0.00 85 1018.1
20260507051544 4 0 0.0 0.0 0.00 0.05 0.00 86 1018.0
20260507050043 4 0 0.0 0.0 0.00 0.05 0.00 88 1018.0
20260507044535 5 0 0.0 0.0 0.00 0.05 0.05 88 1018.1
20260507043042 5 0 0.0 0.0 0.00 0.05 0.05 88 1017.9
20260507041540 5 0 0.0 0.0 0.00 0.05 0.05 89 1018.0
20260507040045 5 0 0.0 0.0 0.00 0.05 0.05 88 1018.2
20260507034538 5 0 0.0 0.0 0.00 0.05 0.05 86 1018.3
20260507033043 5 0 0.0 0.0 0.00 0.05 0.05 83 1018.1
20260507031541 6 0 0.0 0.0 0.00 0.05 0.05 81 1018.2
20260507030046 6 0 0.0 0.0 0.00 0.05 0.05 77 1018.1
20260507024542 6 0 0.0 0.0 0.00 0.05 0.05 72 1018.1
20260507023040 7 0 0.0 0.0 0.00 0.05 0.05 69 1017.8
20260507021544 7 0 0.0 0.0 0.00 0.05 0.05 67 1017.7
20260507020040 8 0 0.0 0.0 0.00 0.05 0.05 64 1017.6
20260507014551 9 0 0.0 0.0 0.00 0.05 0.05 62 1017.4
20260507013040 10 0 0.0 0.0 0.00 0.05 0.05 58 1017.4
20260507011542 11 0 0.0 0.0 0.00 0.05 0.05 55 1017.2
20260507010037 12 0 0.0 1.6 0.00 0.05 0.05 51 1017.0
20260507004539 12 0 0.0 0.0 0.00 0.08 0.05 51 1017.0
20260507003034 13 0 0.0 4.8 0.00 0.08 0.05 50 1016.9
20260507001548 13 12 1.6 8.0 0.00 0.08 0.05 48 1016.8
20260507000041 13 323 0.0 4.8 0.00 0.08 0.05 49 1016.8
20260506234535 14 319 0.0 9.7 0.00 0.08 0.05 45 1017.0
20260506233043 15 0 0.0 3.2 0.00 0.08 0.05 43 1017.0
20260506231543 15 315 1.6 6.4 0.00 0.08 0.05 45 1016.9
20260506230045 16 300 0.0 6.4 0.00 0.08 0.05 43 1016.7
20260506224542 16 324 3.2 12.9 0.00 0.08 0.05 45 1016.8
20260506223036 16 25 0.0 4.8 0.00 0.08 0.05 45 1017.0
20260506221535 16 0 1.6 6.4 0.00 0.08 0.05 39 1017.0
20260506220040 16 340 1.6 12.9 0.00 0.08 0.05 48 1017.1
20260506214550 17 11 0.0 6.4 0.00 0.08 0.05 42 1017.2
20260506213041 16 18 0.0 6.4 0.00 0.08 0.05 43 1017.4
20260506211542 16 346 1.6 6.4 0.00 0.08 0.05 44 1017.4
20260506210041 16 290 1.6 9.7 0.00 0.08 0.05 48 1017.8
20260506204542 15 27 3.2 9.7 0.00 0.08 0.05 50 1018.0
20260506203035 16 22 0.0 12.9 0.00 0.08 0.05 49 1018.1
20260506201534 15 332 4.8 12.9 0.00 0.08 0.05 53 1018.3
20260506200043 16 0 1.6 6.4 0.00 0.08 0.05 53 1018.5
20260506194536 15 11 1.6 12.9 0.00 0.10 0.05 47 1018.5
20260506193035 15 87 1.6 12.9 0.00 0.10 0.05 49 1018.6
20260506191548 15 307 1.6 8.0 0.00 0.10 0.05 48 1018.7
20260506190040 16 0 1.6 6.4 0.00 0.10 0.05 49 1018.7
20260506184540 15 42 3.2 8.0 0.00 0.10 0.05 49 1018.8
20260506183035 13 18 1.6 11.3 0.00 0.10 0.05 48 1018.9
20260506181549 13 306 0.0 3.2 0.00 0.10 0.05 52 1019.2
20260506180058 13 298 0.0 6.4 0.00 0.10 0.05 49 1019.2
20260506174541 13 37 4.8 8.0 0.00 0.13 0.05 50 1019.3
20260506173045 13 329 1.6 8.0 0.00 0.13 0.05 51 1019.5